Погода Корнесты

Погода Корнесты : погода сейчас, прогноз погоды и архив. Всё, что Вы хотите узнать о погоде Корнесты!

Поиск расширенной информации на нашем сайте:

Полезная информация: Натуральный шампунь с имбирем дешево у китайцев!

Другие новости

Новости СМИ2

Главная страница сайта

Новости сайта

02.10.2013

Напоминаем, что на нашем новом сайте вы можете получить высокодетализированные прогнозы погоды по пунктам России, СНГ и мира (включающие важные для авиации метеовеличины, такие как направление и скорость ветра, видимость, явления погоды, количество и форма облачности, нижняя и верхняя граница облачности), а также ознакомиться с разнообразными материалами по авиационной метеорологии и подборкой полезных ссылок на эту тему.

Сайт Метеоцентр.Азия посвящён разработке технологий оптимизации авиаметеорологического обслуживания, включая проектирование и перспективное создание нескольких автоматизированных авиаметеорологических систем:
- система выпуска высокодетальных прогностических карт явлений погоды для нижнего воздушного пространства по России и ближнему зарубежью;
- система верификации прогнозов TAF (выпускаемых синоптиками официальных АМСГ РФ и ближнего зарубежья) и AUTOTAF (выпускаемых сайтом Метеоцентр.Азия) - выявление ошибок, онлайн-сопоставление с фактической погодой METAR, автоматическое внесение коррективов в прогнозы при резком отклонении фактической погоды от прогноза, подсчёт оправдываемости прогнозов по элементам и в целом;
- система обработки, анализа и отображения авиаметеорологической информации для применения провайдерами метеорологической информации.

Рекомендуем: Натуральная косметика Пулана по низким ценам в Украине!

Погода Корнесты - сегодня

Время (UTC), дата Ветер
(°,м/с) 
Видим.   Явления Облачность Т
(°С)
Тd
(°С)
f(%) Тe
(°С)
Pmin
(гПа)
dP
(гПа)
Po
(мм)
O2
(г/м3)
Тmin Tmax R s Состояние
почвы
06 23.05.17 270 (З) 10 км    ясно 
+15.5 +7 57 +17  1017.9  743  282  +9.1         
09 23.05.17 270 (З) 10 км    ясно 
+21.5 +5.8 36 +22  1017.3  743  277           
12 23.05.17 тихо ()   10 км    1/1 1000 м 
[Cu hum]
+23.7 +4.1 28 +24  1016.1  -1  742  274           
15 23.05.17 080 (В) 10 км    1/1 600 м 
[Cu hum]
+23.1 +4.1 29 +23  1014.7  -1.4  741  275           
18 23.05.17 160 (Ю) 10 км    ясно 
+18.2 +5.4 43 +20  1016.1  0.9  742  279    +24.5       
21 23.05.17 120 (ЮВ) 10 км    4/0 верхняя 
[Ci fib]
+13.7 +7 64 +14  1017.1  0.6  742  284           
00 24.05.17 120 (ЮВ) 10 км    3/0 верхняя 
[Ci fib]
+15.1 +5.9 54 +16  1016.6  -0.4  742  282           
03 24.05.17 130 (ЮВ) 10 км    4/0 верхняя 
[Ci]
+13.3 +6.6 64 +14  1016.3  -0.4  741  284           
06 24.05.17 170 (Ю) 10 км    3/0 верхняя 
[Ci fib]
+19.4 +8.4 49 +20  1015.4  -0.3  741  277  +12.9         
09 24.05.17 170 (Ю) 10 км    4/0 верхняя 
[Ci fib]
+22.3 +6.9 37 +22  1014.9  -0.3  741  275           
12 24.05.17 170 (Ю) 5{13}  10 км    3/0 верхняя 
[Ci fib]
+23.5 +6.3 33 +24  1013.2  -1.5  740  273           
15 24.05.17 180 (Ю) 10 км    9/0 верхняя 
[Cs]
+22.7 +5.6 33 +23  1012.3  -1  739  274           
18 24.05.17 160 (Ю) 10 км    4/0 верхняя 
[Ci fib]
+18.6 +5.4 42 +19  1013  0.4  739  278    +24.2       
21 24.05.17 140 (ЮВ) 10 км    3/0 верхняя 
[Ci fib]
+15.2 +5.4 52 +15  1014.1  0.7  740  282           
00 25.05.17 120 (ЮВ) 10 км    ясно 
+13.3 +5.9 61 +14  1014  -0.3  740  283           
03 25.05.17 130 (ЮВ) 10 км    4/0 средняя 
[Ac trans]
+11.9 +6.2 68 +12  1013.9  -0.2  740  285           
06 25.05.17 210 (ЮЗ) 10 км    5/0 средняя, верхняя 
[Ac As|Ci fib]
+16.8 +7.4 54 +18  1014.1  0.7  740  280  +11.8         
09 25.05.17 190 (Ю) 10 км    8/0 средняя, верхняя 
[Ac trans|Cs]
+18.6 +9.1 54 +20  1014.7  0.7  741  278           
12 25.05.17 190 (Ю) 10 км    6/3 600 м верхняя 
[Cu hum|Cs]
+22.6 +9.1 42 +23  1013.5  -0.8  740  274           
15 25.05.17 200 (Ю) 10 км    8/4 600 м кучево-дожд., верхняя 
[Cb calv|Cs]
+22.8 +9.2 42 +23  1012.9  -0.5  740  273           
18 25.05.17 130 (ЮВ) 10 км    9/3 600 м средняя, верхняя 
[Sc|Ac trans|Cs]
+18.1 +8.7 54 +20  1013.8  0.4  740  278    +23.7       
21 25.05.17 170 (Ю) 10 км    6/4 600 м верхняя 
[Sc|Cs]
+15.7 +10 69 +17  1015.1  1.1  741  280           
00 26.05.17 160 (Ю) 10 км    5/3 600 м верхняя 
[Sc|Cs]
+13.8 +11.5 86 +18  1015.3  741  282           
03 26.05.17 280 (З) 10 км    9/5 600 м средняя 
[Sc|Ac As]
+12.1 +11.8 98 +17  1015.5  741  284           
06 26.05.17 230 (ЮЗ) 10 км    9/8 600 м средняя 
[Sc|Ac As]
+15.5 +13 85 +23  1015.2  0.1  741  280  +12         
Время (UTC), дата Ветер
(°,м/с) 
Видим.   Явления Облачность Т
(°С)
Тd
(°С)
f(%) Тe
(°С)
Pmin
(гПа)
dP
(гПа)
Po
(мм)
O2
(г/м3)
Тmin Tmax R s Состояние
почвы

Для получения пояснительной информации подведите курсор к названию столбца.

ПОГОДА Корнесты - архив

Всё, что Вы хотите узнать о погоде Корнесты - удобно и подробно!

Выберите нужную дату (начиная с 1 января 2015* года) и нажмите кнопку "Найти".
Будут отображены архивные сводки погоды по пункту Корнесты, начиная с указанной даты.


Отображать данные в формате CSV (для использования в таблицах Excel)


Внимание! Наш архив погоды предназначен исключительно для личного некоммерческого использования в познавательных целях. Если Вам необходимы официальные справки о состоянии погоды (для производственных, юридических, коммерческих и т.п. целей), обращайтесь в органы Росгидромета.

*Примечание: данная дата относится к архиву по метеостанциям СССР (Россия, СНГ, Балтия).
Архив по метеостанциям Зарубежной Европы и Азии (кроме Китая) хранится 10 дней, по другим регионам земного шара (Китай, Африка, Америка, Австралия, Океания) - 1 день.

Корнесты - район местоположения метеостанции


Название, широта, долгота, высота метеостанции:
Корнесты 47.3°ш. 28.1°д. 232 м над ур. моря [Молдавия]

Дополнительная информация

В oтличие oт бoльшинства пoгoдных сайтoв мы публикуем пoдрoбную метеoинфoрмацию в детальнoм прoфессиoнальнoм фoрмате.

Характеристики температуры и влажнoсти вoздуха измеряются на высoте 2 м в тени вдали oт зданий и деревьев.
Скoрoсть ветра измеряется на высoте 10 м (на урoвне рoста челoвека скoрoсть ветра ниже в 1.5-2 раза). Если метеoстанция нахoдится в гoрoде или в лесу, тo скoрoсть ветра занижена на 2-4 м/с пo сравнению с oткрытым местoм. Скoрoсть ветра над акватoриями крупных рек и oзёр, а также на вершинах хoлмoв на 2-5 м/с выше, чем в oбычных услoвиях.
Атмoсфернoе давление в разных тoчках местнoсти мoжет значительнo oтличаться oт давления на метеoстанции, в зависимoсти oт услoвий рельефа (при пoдъёме на 10 м давление пoнижается примернo на 1 мм рт.ст.).